Starlink 30832

operational
NORAD ID: 58354 Int'l Des: 2023-177 Owner: SPXS Country: US Constellation: starlink
LEOCIRCULAR

关于 Starlink 30832

正在加载描述...

实时位置

正在加载3D地球...

即将过境

高度历史

Altitude vs Time

uPlot chart will show altitude changes over time

两行轨道根数

1 58354U 23177D 25350.29945100 .00000714 00000-0 67959-4 0 9992
2 58354 43.0042 84.5412 0001495 268.6305 91.4366 15.02536000115629
Epoch: Dec 16, 2025 • Age: 14 hours

当前状态

高度 569.3 km
速度 7.58 km/s
星下点 -37.74°S, 84.16°W
发射日期 Nov 18, 2023
运行时间 2 years
类型 internet

技术详情

分类 Payload
质量 730.00 kg
干质量 700.00 kg
总质量 730.00 kg
长度 0.30 m
直径 4.10 m
跨度 29.00 m
形状 Box + pan
制造商 SPXS
平台类型 Starlink V2M
阶段状态 In Orbit
所有者/国家 SPXS/US

大型星座

Loading constellations...